TimeCDT,TemperatureF,Dew PointF,Humidity,Sea Level PressureIn,VisibilityMPH,Wind Direction,Wind SpeedMPH,Gust SpeedMPH,PrecipitationIn,Events,Conditions,WindDirDegrees,DateUTC
12:52 AM,57.9,46.9,67,30.28,10.0,South,8.1,-,N/A,,Clear,170,2012-09-15 05:52:00
1:52 AM,53.6,46.4,77,30.28,10.0,SSE,8.1,-,N/A,,Clear,150,2012-09-15 06:52:00
2:52 AM,54.0,46.9,77,30.27,10.0,SSE,6.9,-,N/A,,Clear,150,2012-09-15 07:52:00
3:52 AM,54.0,46.9,77,30.26,10.0,SE,4.6,-,N/A,,Clear,140,2012-09-15 08:52:00
4:52 AM,52.0,46.9,83,30.26,10.0,SSE,5.8,-,N/A,,Clear,150,2012-09-15 09:52:00
5:52 AM,53.1,46.0,77,30.27,10.0,SSE,4.6,-,N/A,,Clear,150,2012-09-15 10:52:00
6:52 AM,50.0,46.0,86,30.27,10.0,SSE,6.9,-,N/A,,Clear,150,2012-09-15 11:52:00
7:52 AM,53.1,46.9,80,30.29,10.0,SSE,4.6,-,N/A,,Clear,160,2012-09-15 12:52:00
8:52 AM,57.0,46.9,69,30.27,10.0,SSE,8.1,-,N/A,,Clear,160,2012-09-15 13:52:00
9:52 AM,61.0,48.0,62,30.27,10.0,SSE,6.9,-,N/A,,Clear,160,2012-09-15 14:52:00
10:52 AM,66.0,48.0,52,30.25,10.0,South,10.4,-,N/A,,Partly Cloudy,170,2012-09-15 15:52:00
11:52 AM,69.1,50.0,51,30.23,10.0,South,6.9,-,N/A,,Partly Cloudy,180,2012-09-15 16:52:00
12:52 PM,71.1,51.1,49,30.20,10.0,SSE,11.5,17.3,N/A,,Partly Cloudy,160,2012-09-15 17:52:00
1:52 PM,73.9,51.1,45,30.18,10.0,SSW,9.2,-,N/A,,Partly Cloudy,200,2012-09-15 18:52:00
2:52 PM,77.0,50.0,39,30.14,10.0,SSE,13.8,20.7,N/A,,Partly Cloudy,160,2012-09-15 19:52:00
3:52 PM,78.1,48.9,36,30.12,10.0,South,11.5,-,N/A,,Partly Cloudy,180,2012-09-15 20:52:00
4:52 PM,77.0,51.1,40,30.11,10.0,South,10.4,-,N/A,,Scattered Clouds,170,2012-09-15 21:52:00
5:52 PM,75.9,54.0,46,30.09,10.0,South,10.4,-,N/A,,Scattered Clouds,180,2012-09-15 22:52:00
6:52 PM,75.0,55.0,50,30.09,10.0,South,13.8,-,N/A,,Scattered Clouds,170,2012-09-15 23:52:00
7:52 PM,72.0,55.9,57,30.09,10.0,South,6.9,-,N/A,,Partly Cloudy,170,2012-09-16 00:52:00
8:52 PM,69.1,55.9,63,30.09,10.0,SSE,5.8,-,N/A,,Partly Cloudy,150,2012-09-16 01:52:00
9:52 PM,64.9,55.9,73,30.10,10.0,SSE,6.9,-,N/A,,Partly Cloudy,150,2012-09-16 02:52:00
10:52 PM,64.9,57.0,75,30.08,10.0,SSE,6.9,-,N/A,,Scattered Clouds,150,2012-09-16 03:52:00
11:52 PM,63.0,55.9,78,30.08,10.0,SSE,5.8,-,N/A,,Scattered Clouds,150,2012-09-16 04:52:00